Time,TemperatureF,DewpointF,PressureIn,WindDirection,WindDirectionDegrees,WindSpeedMPH,WindSpeedGustMPH,Humidity,HourlyPrecipIn,Conditions,Clouds,dailyrainin,SoftwareType,DateUTC
2013-06-01 00:02:00,77.0,62.5,59.77,SSW,200,1.0,6.0,61,0.00,,,0.00,Wunderground PWS Mod,2013-06-01 04:02:00,
2013-06-01 00:08:00,76.4,62.4,59.77,SSE,152,3.0,6.0,62,0.00,,,0.00,Wunderground PWS Mod,2013-06-01 04:08:00,
2013-06-01 00:10:00,77.4,62.4,30.04,SSW,203,2.0,5.0,60,0.00,,,0.00,Wunderground PWS Mod,2013-06-01 04:10:00,
2013-06-01 00:12:00,75.8,62.3,59.76,South,188,1.0,6.0,63,0.00,,,0.00,Wunderground PWS Mod,2013-06-01 04:12:00,
2013-06-01 00:14:00,75.7,62.2,59.76,SSE,160,2.0,6.0,63,0.00,,,0.00,Wunderground PWS Mod,2013-06-01 04:14:00,
2013-06-01 00:22:00,74.8,62.2,59.76,South,179,3.0,6.0,65,0.00,,,0.00,Wunderground PWS Mod,2013-06-01 04:22:00,
2013-06-01 00:28:00,74.4,62.3,59.77,South,188,1.0,6.0,66,0.00,,,0.00,Wunderground PWS Mod,2013-06-01 04:28:00,
2013-06-01 00:32:00,74.6,62.5,59.76,SSW,197,3.0,6.0,66,0.00,,,0.00,Wunderground PWS Mod,2013-06-01 04:32:00,
2013-06-01 00:38:00,75.2,62.6,59.76,SSW,195,1.0,6.0,65,0.00,,,0.00,Wunderground PWS Mod,2013-06-01 04:38:00,
2013-06-01 00:44:00,75.4,62.4,59.76,SSW,194,1.0,6.0,64,0.00,,,0.00,Wunderground PWS Mod,2013-06-01 04:44:00,
2013-06-01 00:48:00,75.2,62.2,30.03,SSW,203,2.0,5.0,64,0.00,,,0.00,Wunderground PWS Mod,2013-06-01 04:48:00,
2013-06-01 00:52:00,75.2,62.2,59.76,SSW,194,1.0,6.0,64,0.00,,,0.00,Wunderground PWS Mod,2013-06-01 04:52:00,
2013-06-01 00:58:00,75.2,62.2,59.76,SSW,194,1.0,6.0,64,0.00,,,0.00,Wunderground PWS Mod,2013-06-01 04:58:00,
2013-06-01 01:04:00,75.2,62.2,59.75,SSW,194,1.0,5.0,64,0.00,,,0.00,Wunderground PWS Mod,2013-06-01 05:04:00,
2013-06-01 01:10:00,75.2,62.2,30.03,SSW,203,2.0,5.0,64,0.00,,,0.00,Wunderground PWS Mod,2013-06-01 05:10:00,
2013-06-01 01:12:00,74.8,62.2,59.75,SSW,194,1.0,5.0,65,0.00,,,0.00,Wunderground PWS Mod,2013-06-01 05:12:00,
2013-06-01 01:18:00,75.0,62.4,59.75,SSW,194,1.0,5.0,65,0.00,,,0.00,Wunderground PWS Mod,2013-06-01 05:18:00,
2013-06-01 01:24:00,74.9,61.9,59.76,SSW,194,2.0,5.0,64,0.00,,,0.00,Wunderground PWS Mod,2013-06-01 05:24:00,
2013-06-01 01:32:00,74.2,62.1,59.75,SSW,194,2.0,5.0,66,0.00,,,0.00,Wunderground PWS Mod,2013-06-01 05:32:00,
2013-06-01 01:38:00,74.3,61.8,59.75,SSW,194,0.0,5.0,65,0.00,,,0.00,Wunderground PWS Mod,2013-06-01 05:38:00,
2013-06-01 01:43:00,74.8,62.2,59.75,SSW,194,0.0,5.0,65,0.00,,,0.00,Wunderground PWS Mod,2013-06-01 05:43:00,
2013-06-01 01:46:00,74.8,61.4,30.02,SSW,203,1.0,4.0,63,0.00,,,0.00,Wunderground PWS Mod,2013-06-01 05:46:00,
2013-06-01 01:52:00,75.0,62.0,59.75,SSW,194,1.0,5.0,64,0.00,,,0.00,Wunderground PWS Mod,2013-06-01 05:52:00,
2013-06-01 01:57:00,75.2,62.2,59.75,SSW,194,1.0,5.0,64,0.00,,,0.00,Wunderground PWS Mod,2013-06-01 05:57:00,
2013-06-01 02:04:00,75.7,62.2,59.74,SSW,194,2.0,5.0,63,0.00,,,0.00,Wunderground PWS Mod,2013-06-01 06:04:00,
2013-06-01 02:10:00,74.8,61.4,30.02,SSW,203,1.0,4.0,63,0.00,,,0.00,Wunderground PWS Mod,2013-06-01 06:10:00,
2013-06-01 02:12:00,74.6,62.1,59.75,SSW,194,2.0,5.0,65,0.00,,,0.00,Wunderground PWS Mod,2013-06-01 06:12:00,
2013-06-01 02:18:00,74.2,62.1,59.75,SSW,194,1.0,5.0,66,0.00,,,0.00,Wunderground PWS Mod,2013-06-01 06:18:00,
2013-06-01 02:24:00,74.2,62.1,59.75,SSW,194,1.0,5.0,66,0.00,,,0.00,Wunderground PWS Mod,2013-06-01 06:24:00,
2013-06-01 02:32:00,73.9,61.8,59.74,SSW,194,1.0,5.0,66,0.00,,,0.00,Wunderground PWS Mod,2013-06-01 06:32:00,
2013-06-01 02:38:00,73.9,61.8,59.74,SSW,194,2.0,5.0,66,0.00,,,0.00,Wunderground PWS Mod,2013-06-01 06:38:00,
2013-06-01 02:44:00,73.9,61.8,59.74,SSW,194,2.0,5.0,66,0.00,,,0.00,Wunderground PWS Mod,2013-06-01 06:44:00,
2013-06-01 02:48:00,73.7,62.1,30.01,SSW,203,2.0,5.0,67,0.00,,,0.00,Wunderground PWS Mod,2013-06-01 06:48:00,
2013-06-01 02:52:00,73.5,61.4,59.74,SSW,201,2.0,5.0,66,0.00,,,0.00,Wunderground PWS Mod,2013-06-01 06:52:00,
2013-06-01 02:58:00,73.3,61.7,59.74,SSW,206,3.0,5.0,67,0.00,,,0.00,Wunderground PWS Mod,2013-06-01 06:58:00,
2013-06-01 03:04:00,73.4,61.3,59.74,SSW,196,2.0,4.0,66,0.00,,,0.00,Wunderground PWS Mod,2013-06-01 07:04:00,
2013-06-01 03:10:00,73.7,62.1,30.01,SSW,203,2.0,5.0,67,0.00,,,0.00,Wunderground PWS Mod,2013-06-01 07:10:00,
2013-06-01 03:12:00,73.5,61.4,59.74,SSW,199,2.0,5.0,66,0.00,,,0.00,Wunderground PWS Mod,2013-06-01 07:12:00,
2013-06-01 03:18:00,73.6,61.5,59.74,SSW,195,1.0,5.0,66,0.00,,,0.00,Wunderground PWS Mod,2013-06-01 07:18:00,
2013-06-01 03:23:00,74.0,61.5,59.74,SSW,199,1.0,5.0,65,0.00,,,0.00,Wunderground PWS Mod,2013-06-01 07:23:00,
2013-06-01 03:32:00,74.3,61.3,59.74,South,190,2.0,5.0,64,0.00,,,0.00,Wunderground PWS Mod,2013-06-01 07:32:00,
2013-06-01 03:38:00,73.8,61.3,59.74,SSW,192,1.0,5.0,65,0.00,,,0.00,Wunderground PWS Mod,2013-06-01 07:38:00,
2013-06-01 03:43:00,73.2,61.2,59.74,SSW,192,4.0,6.0,66,0.00,,,0.00,Wunderground PWS Mod,2013-06-01 07:43:00,
2013-06-01 03:46:00,73.5,61.4,30.01,SSW,203,2.0,6.0,66,0.00,,,0.00,Wunderground PWS Mod,2013-06-01 07:46:00,
2013-06-01 03:52:00,73.4,61.3,59.74,SW,228,2.0,6.0,66,0.00,,,0.00,Wunderground PWS Mod,2013-06-01 07:52:00,
2013-06-01 03:57:00,73.3,61.3,59.74,SW,229,1.0,6.0,66,0.00,,,0.00,Wunderground PWS Mod,2013-06-01 07:57:00,
2013-06-01 04:03:00,73.2,61.6,59.74,WSW,252,1.0,6.0,67,0.00,,,0.00,Wunderground PWS Mod,2013-06-01 08:03:00,
2013-06-01 04:10:00,73.5,61.4,30.01,SSW,203,2.0,6.0,66,0.00,,,0.00,Wunderground PWS Mod,2013-06-01 08:10:00,
2013-06-01 04:12:00,73.0,61.4,59.74,SSW,203,2.0,6.0,67,0.00,,,0.00,Wunderground PWS Mod,2013-06-01 08:12:00,
2013-06-01 04:17:00,72.9,61.3,59.74,SSW,202,4.0,6.0,67,0.00,,,0.00,Wunderground PWS Mod,2013-06-01 08:17:00,
2013-06-01 04:23:00,73.1,61.5,59.74,SW,217,5.0,6.0,67,0.00,,,0.00,Wunderground PWS Mod,2013-06-01 08:23:00,
2013-06-01 04:32:00,72.8,61.2,59.74,WSW,241,0.0,6.0,67,0.00,,,0.00,Wunderground PWS Mod,2013-06-01 08:32:00,
2013-06-01 04:38:00,72.4,61.2,59.74,WSW,248,1.0,6.0,68,0.00,,,0.00,Wunderground PWS Mod,2013-06-01 08:38:00,
2013-06-01 04:44:00,72.5,61.3,59.74,South,189,3.0,7.0,68,0.00,,,0.00,Wunderground PWS Mod,2013-06-01 08:44:00,
2013-06-01 04:48:00,72.4,61.2,30.01,SSW,203,3.0,9.0,68,0.00,,,0.00,Wunderground PWS Mod,2013-06-01 08:48:00,
2013-06-01 04:52:00,72.3,61.1,59.74,WSW,245,1.0,7.0,68,0.00,,,0.00,Wunderground PWS Mod,2013-06-01 08:52:00,
2013-06-01 04:58:00,72.3,61.1,59.74,SW,214,3.0,7.0,68,0.00,,,0.00,Wunderground PWS Mod,2013-06-01 08:58:00,
2013-06-01 05:03:00,72.3,61.1,59.74,SSW,212,2.0,7.0,68,0.00,,,0.00,Wunderground PWS Mod,2013-06-01 09:03:00,
2013-06-01 05:10:00,72.4,61.2,30.01,SSW,203,3.0,9.0,68,0.00,,,0.00,Wunderground PWS Mod,2013-06-01 09:10:00,
2013-06-01 05:12:00,72.0,61.3,59.75,SW,229,4.0,9.0,69,0.00,,,0.00,Wunderground PWS Mod,2013-06-01 09:12:00,
2013-06-01 05:18:00,71.7,61.0,59.75,SW,219,5.0,9.0,69,0.00,,,0.00,Wunderground PWS Mod,2013-06-01 09:18:00,
2013-06-01 05:23:00,71.7,61.0,59.74,WSW,254,5.0,9.0,69,0.00,,,0.00,Wunderground PWS Mod,2013-06-01 09:23:00,
2013-06-01 05:32:00,71.5,60.8,59.74,SSW,211,5.0,9.0,69,0.00,,,0.00,Wunderground PWS Mod,2013-06-01 09:32:00,
2013-06-01 05:38:00,71.3,61.0,59.75,SW,225,4.0,9.0,70,0.00,,,0.00,Wunderground PWS Mod,2013-06-01 09:38:00,
2013-06-01 05:43:00,71.4,61.1,59.74,SSW,205,2.0,10.0,70,0.00,,,0.00,Wunderground PWS Mod,2013-06-01 09:43:00,
2013-06-01 05:46:00,71.3,61.0,30.02,SSW,203,4.0,10.0,70,0.00,,,0.00,Wunderground PWS Mod,2013-06-01 09:46:00,
2013-06-01 05:52:00,71.2,60.9,59.74,SSW,207,3.0,10.0,70,0.00,,,0.00,Wunderground PWS Mod,2013-06-01 09:52:00,
2013-06-01 05:58:00,71.0,61.1,59.74,SSW,207,6.0,10.0,71,0.00,,,0.00,Wunderground PWS Mod,2013-06-01 09:58:00,
2013-06-01 06:03:00,70.9,61.0,59.75,SSW,208,2.0,10.0,71,0.00,,,0.00,Wunderground PWS Mod,2013-06-01 10:03:00,
2013-06-01 06:10:00,71.3,61.0,30.02,SSW,203,4.0,10.0,70,0.00,,,0.00,Wunderground PWS Mod,2013-06-01 10:10:00,
2013-06-01 06:12:00,71.3,61.0,59.75,SW,225,1.0,10.0,70,0.00,,,0.00,Wunderground PWS Mod,2013-06-01 10:12:00,
2013-06-01 06:18:00,71.3,61.0,59.76,SW,219,4.0,10.0,70,0.00,,,0.00,Wunderground PWS Mod,2013-06-01 10:18:00,
2013-06-01 06:24:00,71.5,61.2,59.75,SSW,213,0.0,10.0,70,0.00,,,0.00,Wunderground PWS Mod,2013-06-01 10:24:00,
2013-06-01 06:32:00,71.3,61.0,59.75,SW,234,2.0,10.0,70,0.00,,,0.00,Wunderground PWS Mod,2013-06-01 10:32:00,
2013-06-01 06:38:00,71.2,61.3,59.76,SSW,202,3.0,10.0,71,0.00,,,0.00,Wunderground PWS Mod,2013-06-01 10:38:00,
2013-06-01 06:43:00,71.3,61.4,59.76,WSW,245,1.0,10.0,71,0.00,,,0.00,Wunderground PWS Mod,2013-06-01 10:43:00,
2013-06-01 06:48:00,71.5,61.6,30.02,SSW,203,4.0,10.0,71,0.00,,,0.00,Wunderground PWS Mod,2013-06-01 10:48:00,
2013-06-01 06:52:00,71.8,61.5,59.75,SSW,206,6.0,10.0,70,0.00,,,0.00,Wunderground PWS Mod,2013-06-01 10:52:00,
2013-06-01 06:58:00,71.5,61.6,59.75,SSW,210,4.0,10.0,71,0.00,,,0.00,Wunderground PWS Mod,2013-06-01 10:58:00,
2013-06-01 07:04:00,71.6,61.3,59.75,SSW,208,3.0,9.0,70,0.00,,,0.00,Wunderground PWS Mod,2013-06-01 11:04:00,
2013-06-01 07:10:00,71.5,61.6,30.02,SSW,203,4.0,10.0,71,0.00,,,0.00,Wunderground PWS Mod,2013-06-01 11:10:00,
2013-06-01 07:12:00,72.0,61.7,59.75,SW,215,2.0,10.0,70,0.00,,,0.00,Wunderground PWS Mod,2013-06-01 11:12:00,
2013-06-01 07:17:00,72.0,61.7,59.76,SW,222,2.0,10.0,70,0.00,,,0.00,Wunderground PWS Mod,2013-06-01 11:17:00,
2013-06-01 07:24:00,72.3,61.6,59.76,West,265,2.0,10.0,69,0.00,,,0.00,Wunderground PWS Mod,2013-06-01 11:24:00,
2013-06-01 07:32:00,72.3,62.0,59.76,SW,234,2.0,10.0,70,0.00,,,0.00,Wunderground PWS Mod,2013-06-01 11:32:00,
2013-06-01 07:38:00,72.6,62.3,59.76,West,270,1.0,10.0,70,0.00,,,0.00,Wunderground PWS Mod,2013-06-01 11:38:00,
2013-06-01 07:44:00,73.2,62.4,59.76,NW,307,4.0,10.0,69,0.00,,,0.00,Wunderground PWS Mod,2013-06-01 11:44:00,
2013-06-01 07:48:00,73.1,61.9,30.03,West,270,3.0,8.0,68,0.00,,,0.00,Wunderground PWS Mod,2013-06-01 11:48:00,
2013-06-01 07:52:00,73.3,62.5,59.76,WSW,238,4.0,10.0,69,0.00,,,0.00,Wunderground PWS Mod,2013-06-01 11:52:00,
2013-06-01 07:57:00,73.5,62.3,59.76,WSW,246,4.0,10.0,68,0.00,,,0.00,Wunderground PWS Mod,2013-06-01 11:57:00,
2013-06-01 08:04:00,73.6,62.4,59.76,West,270,1.0,9.0,68,0.00,,,0.00,Wunderground PWS Mod,2013-06-01 12:04:00,
2013-06-01 08:10:00,73.1,61.9,30.03,West,270,3.0,8.0,68,0.00,,,0.00,Wunderground PWS Mod,2013-06-01 12:10:00,
2013-06-01 08:12:00,73.9,62.7,59.76,SW,230,3.0,9.0,68,0.00,,,0.00,Wunderground PWS Mod,2013-06-01 12:12:00,
2013-06-01 08:18:00,74.2,63.0,59.76,West,265,2.0,9.0,68,0.00,,,0.00,Wunderground PWS Mod,2013-06-01 12:18:00,
2013-06-01 08:24:00,74.7,63.4,59.76,SSW,200,6.0,9.0,68,0.00,,,0.00,Wunderground PWS Mod,2013-06-01 12:24:00,
2013-06-01 08:32:00,75.4,63.7,59.76,WSW,250,3.0,9.0,67,0.00,,,0.00,Wunderground PWS Mod,2013-06-01 12:32:00,
2013-06-01 08:38:00,75.8,63.6,59.76,SW,224,3.0,9.0,66,0.00,,,0.00,Wunderground PWS Mod,2013-06-01 12:38:00,
2013-06-01 08:44:00,76.2,63.6,59.76,WSW,245,4.0,12.0,65,0.00,,,0.00,Wunderground PWS Mod,2013-06-01 12:44:00,
2013-06-01 08:46:00,76.3,63.2,30.03,SW,225,4.0,12.0,64,0.00,,,0.00,Wunderground PWS Mod,2013-06-01 12:46:00,
2013-06-01 08:52:00,76.8,63.7,59.76,West,259,7.0,12.0,64,0.00,,,0.00,Wunderground PWS Mod,2013-06-01 12:52:00,
2013-06-01 08:58:00,76.9,63.8,59.76,SW,219,4.0,12.0,64,0.00,,,0.00,Wunderground PWS Mod,2013-06-01 12:58:00,
2013-06-01 09:04:00,77.2,64.1,59.76,SW,224,1.0,12.0,64,0.00,,,0.00,Wunderground PWS Mod,2013-06-01 13:04:00,
2013-06-01 09:10:00,76.3,63.2,30.03,SW,225,4.0,12.0,64,0.00,,,0.00,Wunderground PWS Mod,2013-06-01 13:10:00,
2013-06-01 09:12:00,77.7,63.6,59.76,West,261,3.0,12.0,62,0.00,,,0.00,Wunderground PWS Mod,2013-06-01 13:12:00,
2013-06-01 09:18:00,78.5,63.9,59.76,SW,219,5.0,12.0,61,0.00,,,0.00,Wunderground PWS Mod,2013-06-01 13:18:00,
2013-06-01 09:24:00,79.1,64.0,59.76,WSW,252,4.0,12.0,60,0.00,,,0.00,Wunderground PWS Mod,2013-06-01 13:24:00,
2013-06-01 09:32:00,78.9,63.8,59.75,WNW,299,2.0,12.0,60,0.00,,,0.00,Wunderground PWS Mod,2013-06-01 13:32:00,
2013-06-01 09:38:00,78.9,63.8,59.75,WSW,253,1.0,12.0,60,0.00,,,0.00,Wunderground PWS Mod,2013-06-01 13:38:00,
2013-06-01 09:44:00,79.0,63.9,59.75,WSW,243,3.0,12.0,60,0.00,,,0.00,Wunderground PWS Mod,2013-06-01 13:44:00,
2013-06-01 09:48:00,79.2,63.6,30.02,WNW,293,4.0,11.0,59,0.00,,,0.00,Wunderground PWS Mod,2013-06-01 13:48:00,
2013-06-01 09:52:00,79.1,64.0,59.75,WNW,283,4.0,12.0,60,0.00,,,0.00,Wunderground PWS Mod,2013-06-01 13:52:00,
2013-06-01 09:58:00,79.6,64.0,59.75,SSW,207,6.0,12.0,59,0.00,,,0.00,Wunderground PWS Mod,2013-06-01 13:58:00,
2013-06-01 10:04:00,80.0,63.9,59.75,West,264,5.0,9.0,58,0.00,,,0.00,Wunderground PWS Mod,2013-06-01 14:04:00,
2013-06-01 10:10:00,79.2,63.6,30.02,WNW,293,4.0,11.0,59,0.00,,,0.00,Wunderground PWS Mod,2013-06-01 14:10:00,
2013-06-01 10:12:00,79.9,64.3,59.75,SSW,209,3.0,11.0,59,0.00,,,0.00,Wunderground PWS Mod,2013-06-01 14:12:00,
2013-06-01 10:18:00,80.4,64.3,59.75,SSW,209,2.0,11.0,58,0.00,,,0.00,Wunderground PWS Mod,2013-06-01 14:18:00,
2013-06-01 10:24:00,80.6,64.5,59.75,West,269,5.0,11.0,58,0.00,,,0.00,Wunderground PWS Mod,2013-06-01 14:24:00,
2013-06-01 10:32:00,81.0,64.3,59.75,WNW,293,4.0,11.0,57,0.00,,,0.00,Wunderground PWS Mod,2013-06-01 14:32:00,
2013-06-01 10:38:00,81.0,64.8,59.74,West,271,2.0,11.0,58,0.00,,,0.00,Wunderground PWS Mod,2013-06-01 14:38:00,
2013-06-01 10:44:00,81.7,65.0,59.74,SW,218,6.0,11.0,57,0.00,,,0.00,Wunderground PWS Mod,2013-06-01 14:44:00,
2013-06-01 10:50:00,81.6,63.3,30.01,WNW,293,4.0,12.0,54,0.00,,,0.00,Wunderground PWS Mod,2013-06-01 14:50:00,
2013-06-01 10:52:00,81.7,65.0,59.74,SSW,193,1.0,11.0,57,0.00,,,0.00,Wunderground PWS Mod,2013-06-01 14:52:00,
2013-06-01 10:58:00,82.6,64.8,59.74,South,179,5.0,11.0,55,0.00,,,0.00,Wunderground PWS Mod,2013-06-01 14:58:00,
2013-06-01 11:03:00,83.2,64.8,59.74,SSW,195,2.0,9.0,54,0.00,,,0.00,Wunderground PWS Mod,2013-06-01 15:03:00,
2013-06-01 11:10:00,81.6,63.3,30.01,WNW,293,4.0,12.0,54,0.00,,,0.00,Wunderground PWS Mod,2013-06-01 15:10:00,
2013-06-01 11:12:00,83.9,64.4,59.75,West,259,2.0,12.0,52,0.00,,,0.00,Wunderground PWS Mod,2013-06-01 15:12:00,
2013-06-01 11:18:00,83.7,64.8,59.75,SSW,203,0.0,12.0,53,0.00,,,0.00,Wunderground PWS Mod,2013-06-01 15:18:00,
2013-06-01 11:24:00,84.4,65.4,59.75,SSW,213,2.0,12.0,53,0.00,,,0.00,Wunderground PWS Mod,2013-06-01 15:24:00,
2013-06-01 11:32:00,84.1,65.1,59.74,SW,227,2.0,12.0,53,0.00,,,0.00,Wunderground PWS Mod,2013-06-01 15:32:00,
2013-06-01 11:38:00,84.2,65.2,59.74,SW,227,2.0,12.0,53,0.00,,,0.00,Wunderground PWS Mod,2013-06-01 15:38:00,
2013-06-01 11:44:00,84.9,64.8,59.74,SSW,207,3.0,12.0,51,0.00,,,0.00,Wunderground PWS Mod,2013-06-01 15:44:00,
2013-06-01 11:48:00,85.2,65.0,30.00,SSW,203,3.0,9.0,51,0.00,,,0.00,Wunderground PWS Mod,2013-06-01 15:48:00,
2013-06-01 11:52:00,85.8,65.0,59.74,SSW,212,2.0,12.0,50,0.00,,,0.00,Wunderground PWS Mod,2013-06-01 15:52:00,
2013-06-01 11:58:00,86.4,65.6,59.73,South,189,5.0,12.0,50,0.00,,,0.00,Wunderground PWS Mod,2013-06-01 15:58:00,
2013-06-01 12:04:00,85.4,65.2,59.73,South,175,3.0,10.0,51,0.00,,,0.00,Wunderground PWS Mod,2013-06-01 16:04:00,
2013-06-01 12:10:00,85.2,65.0,30.00,SSW,203,3.0,9.0,51,0.00,,,0.00,Wunderground PWS Mod,2013-06-01 16:10:00,
2013-06-01 12:12:00,85.0,64.8,59.73,SW,214,3.0,10.0,51,0.00,,,0.00,Wunderground PWS Mod,2013-06-01 16:12:00,
2013-06-01 12:18:00,84.9,65.3,59.73,WNW,297,5.0,10.0,52,0.00,,,0.00,Wunderground PWS Mod,2013-06-01 16:18:00,
2013-06-01 12:24:00,85.6,65.4,59.73,SSW,211,2.0,10.0,51,0.00,,,0.00,Wunderground PWS Mod,2013-06-01 16:24:00,
2013-06-01 12:32:00,86.2,65.4,59.72,SSW,204,8.0,10.0,50,0.00,,,0.00,Wunderground PWS Mod,2013-06-01 16:32:00,
2013-06-01 12:38:00,87.3,65.8,59.73,SSW,206,3.0,10.0,49,0.00,,,0.00,Wunderground PWS Mod,2013-06-01 16:38:00,
2013-06-01 12:43:00,87.9,65.8,59.73,SW,214,4.0,10.0,48,0.00,,,0.00,Wunderground PWS Mod,2013-06-01 16:43:00,
2013-06-01 12:46:00,87.6,65.5,29.99,SSW,203,3.0,9.0,48,0.00,,,0.00,Wunderground PWS Mod,2013-06-01 16:46:00,
2013-06-01 12:52:00,88.2,66.0,59.72,WNW,291,4.0,10.0,48,0.00,,,0.00,Wunderground PWS Mod,2013-06-01 16:52:00,
2013-06-01 12:58:00,87.9,65.8,59.72,SSW,206,3.0,10.0,48,0.00,,,0.00,Wunderground PWS Mod,2013-06-01 16:58:00,
2013-06-01 13:04:00,87.2,65.1,59.72,West,279,4.0,9.0,48,0.00,,,0.00,Wunderground PWS Mod,2013-06-01 17:04:00,
2013-06-01 13:10:00,87.6,65.5,29.99,SSW,203,3.0,9.0,48,0.00,,,0.00,Wunderground PWS Mod,2013-06-01 17:10:00,
2013-06-01 13:12:00,87.5,66.0,59.71,SE,139,3.0,9.0,49,0.00,,,0.00,Wunderground PWS Mod,2013-06-01 17:12:00,
2013-06-01 13:18:00,88.0,65.2,59.71,SSW,207,7.0,9.0,47,0.00,,,0.00,Wunderground PWS Mod,2013-06-01 17:18:00,
2013-06-01 13:24:00,87.8,65.7,59.71,SSW,212,12.0,12.0,48,0.00,,,0.00,Wunderground PWS Mod,2013-06-01 17:24:00,
2013-06-01 13:32:00,87.3,65.2,59.71,SSW,213,6.0,12.0,48,0.00,,,0.00,Wunderground PWS Mod,2013-06-01 17:32:00,
2013-06-01 13:38:00,88.0,65.2,59.70,South,189,2.0,12.0,47,0.00,,,0.00,Wunderground PWS Mod,2013-06-01 17:38:00,
2013-06-01 13:44:00,88.5,65.7,59.70,West,276,2.0,12.0,47,0.00,,,0.00,Wunderground PWS Mod,2013-06-01 17:44:00,
2013-06-01 13:48:00,88.7,65.3,29.97,SSW,203,4.0,12.0,46,0.00,,,0.00,Wunderground PWS Mod,2013-06-01 17:48:00,
2013-06-01 13:52:00,89.5,66.0,59.70,SSW,194,10.0,12.0,46,0.00,,,0.00,Wunderground PWS Mod,2013-06-01 17:52:00,
2013-06-01 13:58:00,89.8,66.3,59.70,SSW,203,1.0,12.0,46,0.00,,,0.00,Wunderground PWS Mod,2013-06-01 17:58:00,
2013-06-01 14:04:00,89.7,66.8,59.69,SSE,163,1.0,12.0,47,0.00,,,0.00,Wunderground PWS Mod,2013-06-01 18:04:00,
2013-06-01 14:10:00,88.7,65.3,29.97,SSW,203,4.0,12.0,46,0.00,,,0.00,Wunderground PWS Mod,2013-06-01 18:10:00,
2013-06-01 14:12:00,89.5,66.6,59.69,SSW,204,8.0,12.0,47,0.00,,,0.00,Wunderground PWS Mod,2013-06-01 18:12:00,
2013-06-01 14:18:00,89.2,65.7,59.69,SW,214,6.0,12.0,46,0.00,,,0.00,Wunderground PWS Mod,2013-06-01 18:18:00,
2013-06-01 14:24:00,89.7,66.2,59.69,SSW,210,6.0,12.0,46,0.00,,,0.00,Wunderground PWS Mod,2013-06-01 18:24:00,
2013-06-01 14:32:00,89.2,66.9,59.69,SSE,163,5.0,12.0,48,0.00,,,0.00,Wunderground PWS Mod,2013-06-01 18:32:00,
2013-06-01 14:38:00,89.7,66.8,59.70,West,272,2.0,12.0,47,0.00,,,0.00,Wunderground PWS Mod,2013-06-01 18:38:00,
2013-06-01 14:44:00,90.5,66.9,59.69,SSW,208,3.0,12.0,46,0.00,,,0.00,Wunderground PWS Mod,2013-06-01 18:44:00,
2013-06-01 14:46:00,90.2,66.0,29.96,SSW,203,4.0,11.0,45,0.00,,,0.00,Wunderground PWS Mod,2013-06-01 18:46:00,
2013-06-01 14:52:00,90.4,66.2,59.69,West,268,3.0,12.0,45,0.00,,,0.00,Wunderground PWS Mod,2013-06-01 18:52:00,
2013-06-01 14:57:00,90.4,66.2,59.69,West,277,2.0,12.0,45,0.00,,,0.00,Wunderground PWS Mod,2013-06-01 18:57:00,
2013-06-01 15:04:00,90.2,66.6,59.69,SSW,207,2.0,12.0,46,0.00,,,0.00,Wunderground PWS Mod,2013-06-01 19:04:00,
2013-06-01 15:10:00,90.2,66.0,29.96,SSW,203,4.0,11.0,45,0.00,,,0.00,Wunderground PWS Mod,2013-06-01 19:10:00,
2013-06-01 15:12:00,90.3,66.7,59.68,SSE,162,8.0,12.0,46,0.00,,,0.00,Wunderground PWS Mod,2013-06-01 19:12:00,
2013-06-01 15:18:00,90.1,66.5,59.68,SSW,192,3.0,12.0,46,0.00,,,0.00,Wunderground PWS Mod,2013-06-01 19:18:00,
2013-06-01 15:24:00,90.6,67.6,59.68,South,185,6.0,12.0,47,0.00,,,0.00,Wunderground PWS Mod,2013-06-01 19:24:00,
2013-06-01 15:32:00,90.4,66.2,59.68,SSW,212,9.0,12.0,45,0.00,,,0.00,Wunderground PWS Mod,2013-06-01 19:32:00,
2013-06-01 15:38:00,90.5,66.3,59.68,SSW,197,4.0,12.0,45,0.00,,,0.00,Wunderground PWS Mod,2013-06-01 19:38:00,
2013-06-01 15:44:00,91.4,66.4,59.68,SSW,194,7.0,13.0,44,0.00,,,0.00,Wunderground PWS Mod,2013-06-01 19:44:00,
2013-06-01 15:48:00,90.7,66.4,29.94,SW,225,5.0,14.0,45,0.00,,,0.00,Wunderground PWS Mod,2013-06-01 19:48:00,
2013-06-01 15:52:00,90.6,66.3,59.68,SSW,198,7.0,13.0,45,0.00,,,0.00,Wunderground PWS Mod,2013-06-01 19:52:00,
2013-06-01 15:57:00,90.3,65.4,59.68,SW,216,9.0,13.0,44,0.00,,,0.00,Wunderground PWS Mod,2013-06-01 19:57:00,
2013-06-01 16:04:00,90.5,66.9,59.67,SSW,200,6.0,13.0,46,0.00,,,0.00,Wunderground PWS Mod,2013-06-01 20:04:00,
2013-06-01 16:10:00,90.7,66.4,29.94,SW,225,5.0,14.0,45,0.00,,,0.00,Wunderground PWS Mod,2013-06-01 20:10:00,
2013-06-01 16:12:00,90.3,66.1,59.67,SSW,205,1.0,14.0,45,0.00,,,0.00,Wunderground PWS Mod,2013-06-01 20:12:00,
2013-06-01 16:18:00,92.2,66.5,59.67,SSW,205,4.0,14.0,43,0.00,,,0.00,Wunderground PWS Mod,2013-06-01 20:18:00,
2013-06-01 16:24:00,91.5,66.5,59.67,WSW,257,2.0,14.0,44,0.00,,,0.00,Wunderground PWS Mod,2013-06-01 20:24:00,
2013-06-01 16:32:00,91.4,65.1,59.66,West,266,5.0,14.0,42,0.00,,,0.00,Wunderground PWS Mod,2013-06-01 20:32:00,
2013-06-01 16:38:00,91.4,65.8,59.66,South,181,7.0,14.0,43,0.00,,,0.00,Wunderground PWS Mod,2013-06-01 20:38:00,
2013-06-01 16:44:00,91.0,64.7,59.66,WSW,242,3.0,14.0,42,0.00,,,0.00,Wunderground PWS Mod,2013-06-01 20:44:00,
2013-06-01 16:46:00,91.0,66.1,29.92,SSW,203,5.0,14.0,44,0.00,,,0.00,Wunderground PWS Mod,2013-06-01 20:46:00,
2013-06-01 16:52:00,90.5,64.9,59.65,SSW,195,5.0,14.0,43,0.00,,,0.00,Wunderground PWS Mod,2013-06-01 20:52:00,
2013-06-01 16:58:00,90.7,65.8,59.66,SSW,205,2.0,14.0,44,0.00,,,0.00,Wunderground PWS Mod,2013-06-01 20:58:00,
2013-06-01 17:04:00,91.3,65.7,59.65,West,268,3.0,12.0,43,0.00,,,0.00,Wunderground PWS Mod,2013-06-01 21:04:00,
2013-06-01 17:10:00,91.0,66.1,29.92,SSW,203,5.0,14.0,44,0.00,,,0.00,Wunderground PWS Mod,2013-06-01 21:10:00,
2013-06-01 17:12:00,92.3,65.2,59.65,SW,216,12.0,14.0,41,0.00,,,0.00,Wunderground PWS Mod,2013-06-01 21:12:00,
2013-06-01 17:18:00,91.6,65.9,59.65,SSW,210,5.0,14.0,43,0.00,,,0.00,Wunderground PWS Mod,2013-06-01 21:18:00,
2013-06-01 17:24:00,91.3,65.0,59.66,SSW,192,5.0,14.0,42,0.00,,,0.00,Wunderground PWS Mod,2013-06-01 21:24:00,
2013-06-01 17:32:00,92.2,64.4,59.65,WSW,253,5.0,14.0,40,0.00,,,0.00,Wunderground PWS Mod,2013-06-01 21:32:00,
2013-06-01 17:38:00,91.9,64.1,59.66,WSW,242,6.0,14.0,40,0.00,,,0.00,Wunderground PWS Mod,2013-06-01 21:38:00,
2013-06-01 17:43:00,91.5,66.5,59.65,SSW,209,4.0,15.0,44,0.00,,,0.00,Wunderground PWS Mod,2013-06-01 21:43:00,
2013-06-01 17:46:00,92.1,67.1,29.92,SSW,203,5.0,12.0,44,0.00,,,0.00,Wunderground PWS Mod,2013-06-01 21:46:00,
2013-06-01 17:52:00,93.2,66.0,59.65,SSW,206,5.0,15.0,41,0.00,,,0.00,Wunderground PWS Mod,2013-06-01 21:52:00,
2013-06-01 17:57:00,91.9,66.9,59.65,South,189,5.0,15.0,44,0.00,,,0.00,Wunderground PWS Mod,2013-06-01 21:57:00,
2013-06-01 18:04:00,91.7,66.7,59.65,South,178,6.0,15.0,44,0.00,,,0.00,Wunderground PWS Mod,2013-06-01 22:04:00,
2013-06-01 18:10:00,92.1,67.1,29.92,SSW,203,5.0,12.0,44,0.00,,,0.00,Wunderground PWS Mod,2013-06-01 22:10:00,
2013-06-01 18:12:00,90.8,65.9,59.64,SSW,201,6.0,15.0,44,0.00,,,0.00,Wunderground PWS Mod,2013-06-01 22:12:00,
2013-06-01 18:18:00,90.5,64.3,59.65,SW,215,2.0,15.0,42,0.00,,,0.00,Wunderground PWS Mod,2013-06-01 22:18:00,
2013-06-01 18:24:00,91.8,64.7,59.64,SSW,209,4.0,15.0,41,0.00,,,0.00,Wunderground PWS Mod,2013-06-01 22:24:00,
2013-06-01 18:32:00,91.5,65.2,59.64,SSW,210,6.0,15.0,42,0.00,,,0.00,Wunderground PWS Mod,2013-06-01 22:32:00,
2013-06-01 18:38:00,90.2,64.0,59.64,South,176,9.0,15.0,42,0.00,,,0.00,Wunderground PWS Mod,2013-06-01 22:38:00,
2013-06-01 18:44:00,89.5,64.7,59.65,SW,231,3.0,16.0,44,0.00,,,0.00,Wunderground PWS Mod,2013-06-01 22:44:00,
2013-06-01 18:48:00,89.9,65.7,29.92,SSW,203,6.0,18.0,45,0.00,,,0.00,Wunderground PWS Mod,2013-06-01 22:48:00,
2013-06-01 18:52:00,89.7,64.2,59.64,SSW,194,7.0,16.0,43,0.00,,,0.00,Wunderground PWS Mod,2013-06-01 22:52:00,
2013-06-01 18:58:00,89.2,64.4,59.64,South,180,7.0,16.0,44,0.00,,,0.00,Wunderground PWS Mod,2013-06-01 22:58:00,
2013-06-01 19:04:00,89.1,64.3,59.65,SSW,212,4.0,16.0,44,0.00,,,0.00,Wunderground PWS Mod,2013-06-01 23:04:00,
2013-06-01 19:10:00,89.9,65.7,29.92,SSW,203,6.0,18.0,45,0.00,,,0.00,Wunderground PWS Mod,2013-06-01 23:10:00,
2013-06-01 19:12:00,89.6,64.1,59.65,SSW,203,2.0,18.0,43,0.00,,,0.00,Wunderground PWS Mod,2013-06-01 23:12:00,
2013-06-01 19:18:00,90.0,64.5,59.65,South,183,2.0,18.0,43,0.00,,,0.00,Wunderground PWS Mod,2013-06-01 23:18:00,
2013-06-01 19:24:00,90.9,64.6,59.65,SSW,196,4.0,18.0,42,0.00,,,0.00,Wunderground PWS Mod,2013-06-01 23:24:00,
2013-06-01 19:32:00,89.7,64.9,59.65,SSW,208,3.0,18.0,44,0.00,,,0.00,Wunderground PWS Mod,2013-06-01 23:32:00,
2013-06-01 19:38:00,89.5,64.7,59.65,South,170,2.0,18.0,44,0.00,,,0.00,Wunderground PWS Mod,2013-06-01 23:38:00,
2013-06-01 19:44:00,88.5,64.4,59.65,SW,215,3.0,18.0,45,0.00,,,0.00,Wunderground PWS Mod,2013-06-01 23:44:00,
2013-06-01 19:46:00,88.6,65.8,29.92,SSW,203,3.0,10.0,47,0.00,,,0.00,Wunderground PWS Mod,2013-06-01 23:46:00,
2013-06-01 19:52:00,88.2,64.8,59.65,SSW,198,1.0,18.0,46,0.00,,,0.00,Wunderground PWS Mod,2013-06-01 23:52:00,
2013-06-01 19:58:00,87.9,64.5,59.65,SSW,202,7.0,18.0,46,0.00,,,0.00,Wunderground PWS Mod,2013-06-01 23:58:00,
2013-06-01 20:04:00,87.2,64.5,59.65,SSW,207,3.0,12.0,47,0.00,,,0.00,Wunderground PWS Mod,2013-06-02 00:04:00,
2013-06-01 20:10:00,88.6,65.8,29.92,SSW,203,3.0,10.0,47,0.00,,,0.00,Wunderground PWS Mod,2013-06-02 00:10:00,
2013-06-01 20:12:00,86.8,64.8,59.65,South,187,5.0,12.0,48,0.00,,,0.00,Wunderground PWS Mod,2013-06-02 00:12:00,
2013-06-01 20:18:00,86.2,64.8,59.65,South,184,3.0,12.0,49,0.00,,,0.00,Wunderground PWS Mod,2013-06-02 00:18:00,
2013-06-01 20:24:00,86.0,64.6,59.64,South,174,2.0,12.0,49,0.00,,,0.00,Wunderground PWS Mod,2013-06-02 00:24:00,
2013-06-01 20:32:00,85.1,64.9,59.64,South,178,3.0,12.0,51,0.00,,,0.00,Wunderground PWS Mod,2013-06-02 00:32:00,
2013-06-01 20:38:00,84.8,64.7,59.64,South,185,2.0,12.0,51,0.00,,,0.00,Wunderground PWS Mod,2013-06-02 00:38:00,
2013-06-01 20:44:00,84.7,64.6,59.65,SSE,166,3.0,12.0,51,0.00,,,0.00,Wunderground PWS Mod,2013-06-02 00:44:00,
2013-06-01 20:48:00,84.5,64.9,29.92,SSW,203,3.0,7.0,52,0.00,,,0.00,Wunderground PWS Mod,2013-06-02 00:48:00,
2013-06-01 20:52:00,84.3,64.8,59.65,SSE,167,4.0,12.0,52,0.00,,,0.00,Wunderground PWS Mod,2013-06-02 00:52:00,
2013-06-01 20:58:00,84.1,65.1,59.65,SSW,204,3.0,12.0,53,0.00,,,0.00,Wunderground PWS Mod,2013-06-02 00:58:00,
2013-06-01 21:04:00,84.1,64.6,59.65,SSW,203,2.0,10.0,52,0.00,,,0.00,Wunderground PWS Mod,2013-06-02 01:04:00,
2013-06-01 21:10:00,84.5,64.9,29.92,SSW,203,3.0,7.0,52,0.00,,,0.00,Wunderground PWS Mod,2013-06-02 01:10:00,
2013-06-01 21:12:00,83.7,64.8,59.65,SSW,196,4.0,10.0,53,0.00,,,0.00,Wunderground PWS Mod,2013-06-02 01:12:00,
2013-06-01 21:18:00,83.6,65.2,59.65,SSW,192,5.0,10.0,54,0.00,,,0.00,Wunderground PWS Mod,2013-06-02 01:18:00,
2013-06-01 21:24:00,83.5,65.1,59.65,SSW,201,4.0,10.0,54,0.00,,,0.00,Wunderground PWS Mod,2013-06-02 01:24:00,
2013-06-01 21:32:00,83.4,65.0,59.65,SSW,198,3.0,10.0,54,0.00,,,0.00,Wunderground PWS Mod,2013-06-02 01:32:00,
2013-06-01 21:38:00,83.2,65.4,59.66,SSW,209,4.0,10.0,55,0.00,,,0.00,Wunderground PWS Mod,2013-06-02 01:38:00,
2013-06-01 21:44:00,82.5,65.2,59.65,SSW,193,2.0,10.0,56,0.00,,,0.00,Wunderground PWS Mod,2013-06-02 01:44:00,
2013-06-01 21:46:00,82.4,65.6,29.93,SSW,203,3.0,7.0,57,0.00,,,0.00,Wunderground PWS Mod,2013-06-02 01:46:00,
2013-06-01 21:52:00,82.0,64.8,59.66,South,189,4.0,10.0,56,0.00,,,0.00,Wunderground PWS Mod,2013-06-02 01:52:00,
2013-06-01 21:58:00,81.7,65.0,59.66,South,188,4.0,10.0,57,0.00,,,0.00,Wunderground PWS Mod,2013-06-02 01:58:00,
2013-06-01 22:04:00,81.5,65.3,59.66,South,171,3.0,6.0,58,0.00,,,0.00,Wunderground PWS Mod,2013-06-02 02:04:00,
2013-06-01 22:10:00,82.4,65.6,29.93,SSW,203,3.0,7.0,57,0.00,,,0.00,Wunderground PWS Mod,2013-06-02 02:10:00,
2013-06-01 22:12:00,81.2,65.0,59.66,SSW,206,3.0,7.0,58,0.00,,,0.00,Wunderground PWS Mod,2013-06-02 02:12:00,
2013-06-01 22:18:00,80.9,65.2,59.66,South,185,2.0,7.0,59,0.00,,,0.00,Wunderground PWS Mod,2013-06-02 02:18:00,
2013-06-01 22:24:00,80.4,65.2,59.66,SSE,161,2.0,7.0,60,0.00,,,0.00,Wunderground PWS Mod,2013-06-02 02:24:00,
2013-06-01 22:32:00,79.9,64.8,59.66,SSE,161,2.0,7.0,60,0.00,,,0.00,Wunderground PWS Mod,2013-06-02 02:32:00,
2013-06-01 22:38:00,79.6,65.0,59.66,South,174,2.0,7.0,61,0.00,,,0.00,Wunderground PWS Mod,2013-06-02 02:38:00,
2013-06-01 22:44:00,78.9,64.8,59.65,South,183,3.0,7.0,62,0.00,,,0.00,Wunderground PWS Mod,2013-06-02 02:44:00,
2013-06-01 22:46:00,78.9,65.2,29.92,South,180,3.0,7.0,63,0.00,,,0.00,Wunderground PWS Mod,2013-06-02 02:46:00,
2013-06-01 22:52:00,78.4,64.8,59.65,South,176,4.0,7.0,63,0.00,,,0.00,Wunderground PWS Mod,2013-06-02 02:52:00,
2013-06-01 22:58:00,78.3,64.7,59.65,SSW,193,2.0,7.0,63,0.00,,,0.00,Wunderground PWS Mod,2013-06-02 02:58:00,
2013-06-01 23:04:00,78.2,64.6,59.65,South,182,3.0,6.0,63,0.00,,,0.00,Wunderground PWS Mod,2013-06-02 03:04:00,
2013-06-01 23:10:00,78.9,65.2,29.92,South,180,3.0,7.0,63,0.00,,,0.00,Wunderground PWS Mod,2013-06-02 03:10:00,
2013-06-01 23:12:00,78.2,64.6,59.65,South,182,4.0,7.0,63,0.00,,,0.00,Wunderground PWS Mod,2013-06-02 03:12:00,
2013-06-01 23:18:00,78.3,64.7,59.65,South,183,5.0,7.0,63,0.00,,,0.00,Wunderground PWS Mod,2013-06-02 03:18:00,
2013-06-01 23:24:00,78.2,64.6,59.65,South,174,5.0,7.0,63,0.00,,,0.00,Wunderground PWS Mod,2013-06-02 03:24:00,
2013-06-01 23:32:00,78.3,64.7,59.65,SSW,192,5.0,7.0,63,0.00,,,0.00,Wunderground PWS Mod,2013-06-02 03:32:00,
2013-06-01 23:38:00,78.4,64.3,59.65,SW,219,3.0,7.0,62,0.00,,,0.00,Wunderground PWS Mod,2013-06-02 03:38:00,
2013-06-01 23:44:00,78.6,64.0,59.65,SW,218,4.0,7.0,61,0.00,,,0.00,Wunderground PWS Mod,2013-06-02 03:44:00,
2013-06-01 23:46:00,78.6,63.6,29.92,SSW,203,4.0,11.0,60,0.00,,,0.00,Wunderground PWS Mod,2013-06-02 03:46:00,
2013-06-01 23:52:00,78.9,63.8,59.65,SSW,201,5.0,7.0,60,0.00,,,0.00,Wunderground PWS Mod,2013-06-02 03:52:00,
2013-06-01 23:58:00,78.9,63.8,59.65,SSW,194,3.0,7.0,60,0.00,,,0.00,Wunderground PWS Mod,2013-06-02 03:58:00,